Theta_e
321 313 310 313 317 314 309 304 295 294 296 290 287 290 292 297 298 299 300 302 300 304 306 306 305 307 306 304 308 313 314 300 301 297 294 309 329 336 338 338 339 339 339 339 339 338 338 342 343 343 341 341 341 344 346 346 346 347 346 344 344 343 341 341 341 339 339 342 345 344 344 344 344 343 344 343 341 341 341 340 342 342 342 342 342 342 341 341 340 340 341 343 344 344 344 343 343
318 316 314 316 314 307 304 301 292 288 287 285 286 289 295 296 299 299 298 300 302 304 304 311 312 313 313 314 316 312 308 316 316 313 321 330 335 336 339 339 339 338 339 339 338 336 336 340 343 343 342 342 341 341 346 346 346 346 346 344 343 342 342 339 336 337 338 341 344 344 344 345 345 346 345 344 343 342 342 342 342 342 343 343 343 343 343 342 342 341 341 344 344 344 344 343 343
324 315 315 314 311 308 304 300 296 287 287 286 285 290 293 296 297 296 299 303 304 305 308 310 309 308 309 310 309 306 301 319 322 325 327 334 331 333 338 339 339 339 339 339 337 336 337 339 343 343 342 342 341 341 343 345 346 346 346 344 343 342 339 338 339 339 337 341 342 343 343 344 345 345 345 345 344 344 343 344 344 343 343 343 344 344 343 342 342 342 341 343 345 344 343 343 342
317 315 314 308 308 302 296 293 289 287 290 284 284 292 291 292 295 297 301 304 304 302 304 305 304 307 309 308 312 316 314 318 321 327 326 330 332 337 338 339 339 340 339 339 337 336 337 340 343 343 342 342 342 342 344 345 345 346 345 345 343 341 340 340 338 337 338 339 342 343 344 344 345 345 345 345 345 344 343 343 343 343 343 343 343 344 343 343 343 342 342 344 344 343 343 343 342
316 317 314 307 304 302 298 293 290 288 288 286 287 288 294 295 297 301 303 303 303 303 304 304 305 310 313 312 313 306 309 318 324 324 324 327 338 338 338 339 339 339 338 338 337 336 337 341 343 344 343 343 343 343 344 344 344 345 345 345 343 342 342 340 339 338 338 339 341 343 343 344 344 344 344 344 344 343 343 343 343 342 343 343 343 343 343 343 342 342 342 343 344 343 342 341 341
311 312 314 308 304 305 297 293 291 290 290 289 289 293 296 299 302 303 304 302 302 303 303 301 305 304 313 314 315 311 319 315 321 323 325 331 337 339 339 338 339 338 338 338 337 336 337 341 342 344 344 344 343 343 343 344 344 345 345 345 343 342 341 339 337 337 338 337 339 343 344 344 344 343 344 344 343 343 343 343 342 342 342 342 342 343 344 342 342 342 341 341 342 342 342 341 342
312 308 307 301 301 300 291 289 287 289 294 292 292 297 300 300 304 302 301 303 305 304 304 307 313 312 312 314 317 322 324 323 323 323 328 334 338 338 338 338 338 337 338 337 337 336 336 341 344 345 344 343 342 343 343 343 344 344 344 344 343 342 341 340 338 338 338 339 338 340 343 343 343 343 343 343 342 342 342 342 341 341 341 341 341 342 342 342 342 342 341 341 342 342 342 341 341
314 308 303 293 292 294 292 288 290 288 292 293 294 301 301 302 303 303 302 300 302 302 305 308 305 303 304 314 311 320 326 325 324 328 333 336 337 337 337 338 337 337 337 337 337 336 341 341 343 344 343 342 343 342 342 343 344 344 344 343 343 342 341 339 338 338 335 336 339 339 339 341 342 342 342 342 342 341 341 341 341 341 341 340 340 341 341 341 341 342 341 342 341 341 341 341 341
309 307 303 297 294 292 287 290 290 291 290 296 300 303 307 304 303 304 300 301 301 302 302 302 302 303 305 314 311 317 323 327 328 331 334 336 336 336 337 337 337 337 337 337 337 336 337 339 342 343 343 343 343 343 342 342 341 343 342 342 341 340 339 338 338 338 338 337 338 339 340 342 342 341 340 341 340 340 340 340 340 340 340 340 340 341 340 341 340 341 341 341 341 340 340 340 340
308 305 297 294 291 291 286 287 290 291 291 297 300 303 303 302 301 303 300 300 302 302 303 301 301 301 309 312 313 318 320 327 329 330 333 335 336 336 336 338 338 337 336 336 337 337 336 342 340 342 342 343 344 343 342 342 342 342 342 341 339 338 338 338 338 337 337 337 338 337 338 338 339 339 339 339 339 339 339 339 339 339 339 339 340 340 340 339 339 340 340 340 340 339 339 339 339
299 301 301 296 289 288 288 286 288 290 295 296 300 303 303 300 300 298 301 302 300 303 302 306 309 310 312 311 310 315 324 327 329 327 331 333 334 334 336 338 338 338 336 336 337 337 338 338 341 339 341 341 343 343 343 343 342 341 341 341 340 338 337 337 337 337 336 337 337 338 341 342 340 340 341 341 340 340 340 340 340 340 340 340 340 339 339 339 339 339 339 339 339 338 338 339 338
300 298 298 288 287 287 286 288 290 290 290 294 299 301 299 300 299 299 298 301 299 299 301 304 307 313 310 309 310 321 326 326 328 329 331 332 332 335 337 338 338 337 337 336 337 337 337 337 338 340 338 339 339 341 342 342 342 341 341 341 340 338 337 336 337 338 340 338 337 337 339 341 341 340 340 339 339 339 339 339 339 339 339 339 338 339 338 339 338 338 338 338 338 338 338 338 337
298 296 292 291 287 289 287 290 289 291 289 292 297 299 297 298 299 299 298 299 298 299 302 301 312 310 306 308 313 320 323 326 328 330 330 331 334 338 338 338 338 337 337 337 337 337 336 336 336 337 336 335 336 337 338 339 340 341 341 340 339 338 337 337 339 341 342 340 339 339 340 341 340 339 339 339 339 338 338 337 338 337 338 338 337 337 338 338 337 337 337 337 337 337 337 337 336
302 297 294 292 289 288 289 289 289 290 288 291 292 297 298 298 298 299 300 299 298 300 302 304 312 315 311 315 318 317 322 326 328 329 330 330 335 337 337 337 336 336 336 337 337 338 336 335 335 335 335 335 335 334 333 336 338 340 340 339 339 338 338 338 339 339 340 340 339 338 338 339 339 339 338 338 338 338 337 337 337 336 336 337 336 337 337 337 337 337 336 336 337 336 337 336 336
305 301 294 290 289 289 288 292 291 288 288 290 296 297 298 299 298 298 302 299 299 302 304 305 312 309 307 312 311 318 323 327 329 329 329 329 334 336 336 336 335 335 336 337 338 338 337 337 335 334 334 334 334 334 333 334 334 335 337 337 337 338 338 336 335 335 335 335 335 334 334 334 333 334 334 334 334 334 333 332 334 336 336 337 336 336 336 336 336 336 336 335 335 335 335 334 334
304 299 295 294 289 289 288 291 290 288 289 291 295 295 296 298 297 299 300 302 300 304 303 304 310 303 307 313 312 323 326 328 329 328 327 327 331 335 334 334 334 335 335 337 338 338 338 338 337 334 334 334 333 333 332 331 331 331 334 335 335 335 334 333 332 331 329 328 328 328 328 328 328 327 328 328 330 331 330 328 332 335 335 335 335 336 335 335 335 335 335 334 333 333 332 331 331
301 299 295 287 289 289 290 292 291 290 289 292 295 297 297 296 298 298 299 301 302 302 312 313 309 317 315 313 312 326 327 328 327 327 325 326 330 331 332 333 334 333 335 336 337 337 338 338 337 336 335 334 334 333 332 331 330 330 331 330 330 330 330 330 329 325 322 322 322 322 323 323 323 323 323 323 323 324 322 325 330 334 335 335 334 334 335 334 335 334 334 333 332 331 327 327 326
302 296 290 290 288 290 292 294 293 293 293 294 295 296 296 295 297 300 302 303 303 307 310 310 318 317 317 318 324 327 328 327 327 325 323 325 328 328 330 332 332 331 333 334 336 337 337 338 337 337 336 335 335 335 334 331 330 331 329 328 327 327 326 325 323 323 327 322 322 323 322 323 322 320 322 326 322 322 323 323 325 330 333 333 333 334 334 333 333 332 333 332 331 329 324 316 316
297 291 291 292 290 294 295 294 294 295 293 296 297 295 299 298 297 298 299 298 302 303 306 311 313 316 320 321 324 326 326 326 325 325 322 323 326 326 328 330 331 332 332 333 335 336 336 337 338 336 336 335 335 336 335 332 330 331 329 327 326 325 325 324 323 323 321 322 322 322 321 322 321 320 320 322 322 320 322 323 325 329 331 331 331 333 332 332 331 331 332 331 330 323 314 313 314
298 294 290 291 293 294 293 293 295 295 295 295 295 295 296 298 297 298 298 297 298 301 307 308 310 313 316 320 323 325 325 325 325 324 322 323 326 327 327 328 330 331 332 333 333 335 335 336 337 337 335 335 336 336 335 333 331 330 329 326 325 324 324 324 323 322 322 321 322 321 321 320 320 320 325 325 324 320 320 321 322 323 325 325 325 326 329 330 330 329 329 326 320 315 312 313 314
298 295 291 293 293 295 296 294 294 293 295 296 297 295 296 297 296 296 294 297 295 297 309 311 312 315 317 320 322 323 323 323 323 323 321 322 324 327 328 328 329 330 331 332 332 333 334 335 335 335 335 335 335 336 335 333 333 331 329 327 325 324 324 324 323 323 322 322 321 321 320 319 320 320 320 319 319 318 317 317 318 319 317 316 319 313 314 315 314 313 314 315 311 313 313 314 315
299 295 298 297 295 294 293 294 295 294 294 296 294 296 296 296 297 294 298 296 296 298 303 309 317 319 320 320 321 323 322 322 323 322 321 322 323 324 325 325 325 328 328 329 331 333 334 335 335 334 335 334 335 336 335 334 333 332 331 329 326 325 325 324 324 323 323 322 321 321 320 321 320 320 318 317 318 318 318 316 316 316 314 314 314 313 312 311 311 311 312 315 313 312 312 312 313
295 295 298 297 295 295 295 295 295 294 295 295 294 297 295 297 295 294 298 298 297 296 303 309 320 321 323 323 322 321 321 321 322 322 321 321 322 324 325 326 326 327 327 329 330 332 334 335 335 335 335 335 335 336 335 334 333 332 332 329 327 326 325 325 324 322 324 322 321 321 321 320 320 319 318 317 318 318 318 316 315 315 315 314 313 314 311 311 310 310 311 314 312 312 313 313 311
299 295 296 297 297 296 295 295 294 292 295 297 297 295 297 295 295 294 295 296 294 294 301 311 321 322 323 321 322 322 321 321 322 323 323 323 323 324 324 325 327 327 326 328 328 331 332 334 335 335 335 335 335 336 335 333 333 332 331 328 328 326 325 325 325 324 324 323 322 321 321 322 321 319 319 318 318 318 318 318 316 315 316 314 313 312 312 311 311 311 312 312 312 311 311 310 310
297 296 297 296 296 294 294 292 293 293 293 293 294 296 296 297 295 293 295 296 295 299 297 315 321 321 321 322 321 321 321 321 322 322 322 322 323 323 322 324 325 326 326 327 327 329 332 334 335 334 334 335 336 336 334 333 332 332 330 328 328 325 326 326 327 325 324 324 323 321 321 321 320 320 319 319 317 318 317 318 316 316 317 315 314 313 311 312 310 310 311 311 310 310 310 311 310
297 297 297 295 295 295 294 294 294 294 294 293 295 293 294 293 296 294 297 295 296 301 298 316 320 320 320 320 321 321 321 321 321 321 322 323 322 322 321 323 324 324 327 328 327 328 330 333 333 334 334 336 336 336 334 332 332 332 330 329 329 326 327 326 326 325 326 324 323 321 320 321 321 320 320 318 318 318 317 317 316 316 317 315 314 316 313 312 312 310 310 310 310 310 311 312 311
298 297 296 295 295 295 296 294 294 295 295 292 295 292 293 294 295 292 295 296 300 302 300 316 319 319 319 319 320 321 321 321 321 322 322 321 321 322 322 322 323 325 326 326 327 328 328 331 332 334 334 333 336 335 334 332 331 331 330 330 330 329 328 326 325 326 326 325 324 323 320 319 320 320 320 319 319 319 317 317 316 316 316 315 315 316 314 314 313 313 314 312 312 312 312 310 311
299 298 297 295 293 293 293 293 293 294 296 291 294 293 293 293 295 292 294 295 303 303 303 313 317 318 318 319 319 320 321 322 322 321 320 320 321 322 323 323 324 324 325 326 327 328 328 330 332 333 334 334 333 334 332 332 331 331 331 332 332 331 329 327 326 326 324 325 324 324 323 320 319 319 319 319 319 318 317 317 316 315 317 316 315 315 314 315 315 313 312 312 313 313 313 310 309
297 299 297 294 293 293 293 293 293 294 295 292 291 293 292 293 293 296 293 299 302 304 304 310 313 315 317 317 318 318 319 321 321 321 321 322 323 324 323 324 324 324 326 327 327 327 328 329 331 332 334 332 333 333 332 332 331 331 331 332 332 331 330 328 326 326 325 325 324 324 324 323 320 320 319 319 318 318 317 316 315 315 317 316 315 314 314 313 311 311 310 310 310 309 310 310 309
298 296 295 292 291 288 292 292 293 293 294 292 294 285 286 292 296 296 294 300 299 303 303 305 309 312 314 315 316 317 317 317 319 321 322 323 323 324 324 325 325 326 325 326 327 327 328 330 331 332 332 332 332 333 332 332 331 331 331 331 330 330 330 328 327 326 326 325 324 324 324 324 322 322 320 318 318 317 317 316 317 315 315 313 314 313 313 312 312 310 310 309 312 311 310 309 308
292 299 295 289 288 284 289 293 291 292 294 292 294 288 287 292 295 295 294 300 300 302 303 304 306 308 310 312 314 315 316 317 319 321 322 323 324 324 324 325 324 326 325 325 326 327 327 329 331 332 330 332 331 332 330 331 330 330 330 330 329 328 328 328 327 327 328 328 327 325 323 323 323 322 321 320 318 317 316 314 314 317 314 312 312 312 313 311 312 312 309 310 308 307 307 305 306
294 291 288 289 287 286 290 292 291 293 293 292 292 287 290 291 291 290 293 296 297 299 301 303 304 305 307 309 311 312 314 316 318 320 322 323 324 324 324 324 325 325 325 326 326 327 326 327 328 331 330 331 331 332 331 331 330 330 331 327 330 328 328 327 327 327 328 328 328 326 325 324 323 322 320 319 318 316 316 315 315 314 312 313 313 310 310 312 311 311 309 311 309 310 307 311 305
294 290 287 286 286 288 289 293 290 292 291 293 291 287 288 292 290 290 292 297 295 295 296 299 301 302 304 306 309 310 310 312 314 318 320 322 323 324 324 325 325 325 326 326 326 326 326 326 326 330 329 331 331 331 331 329 330 329 330 330 330 328 328 328 327 327 326 326 326 325 325 324 323 322 321 320 320 317 315 316 313 314 312 313 311 310 311 312 312 312 309 309 310 310 308 309 309
288 290 288 289 288 286 287 290 292 292 291 290 290 289 288 289 289 290 292 295 294 294 294 296 298 299 300 303 306 307 308 310 311 315 318 320 322 324 325 323 325 325 325 325 326 326 326 326 326 328 330 331 332 331 330 330 329 329 329 330 329 329 328 328 328 327 326 326 325 324 324 324 323 322 322 322 321 320 317 316 314 313 313 313 311 311 311 310 310 312 312 308 310 309 309 309 309
286 285 284 287 287 288 289 289 291 292 291 290 289 289 291 293 290 291 292 292 293 295 295 294 295 296 297 299 303 305 307 308 310 313 317 319 321 322 324 324 324 324 325 325 326 326 326 325 325 325 327 329 330 331 329 329 328 328 328 328 328 329 329 328 328 327 327 326 326 325 324 324 323 323 322 321 321 319 317 315 315 313 313 312 312 311 309 309 308 308 310 311 310 312 313 311 311
288 290 288 287 287 287 287 290 291 294 290 289 288 290 292 293 294 291 292 292 293 293 292 291 292 295 296 297 300 303 305 307 310 311 314 318 320 321 322 324 324 325 325 324 324 325 325 325 324 325 326 329 329 329 328 327 326 325 326 324 327 328 330 328 328 328 327 327 325 325 324 324 323 323 323 322 322 320 318 316 316 315 314 313 313 312 312 310 311 312 312 312 312 311 311 311 309
291 289 288 288 288 288 289 290 291 292 290 289 289 291 292 294 294 292 293 292 292 291 291 292 291 293 295 296 297 301 304 306 309 309 312 315 317 320 321 323 323 323 324 324 323 324 325 325 323 323 325 327 328 328 326 327 326 324 324 326 327 329 329 330 329 329 328 327 326 325 324 324 324 324 322 323 323 319 318 317 317 316 316 314 314 314 314 313 314 314 313 312 311 311 310 307 307
291 288 287 287 288 287 290 291 293 292 290 288 288 289 291 292 292 290 290 291 293 293 292 292 292 292 294 296 296 298 302 305 304 305 309 313 316 317 319 321 319 321 322 323 322 323 325 325 324 324 324 325 328 329 327 327 328 328 327 327 327 326 327 327 328 329 329 327 326 326 326 327 327 326 323 323 323 322 319 316 316 316 315 315 315 315 315 312 313 312 310 308 309 311 309 308 307
291 288 287 287 287 289 290 291 292 292 291 286 286 288 290 291 292 291 289 292 294 295 295 295 294 293 293 294 295 297 297 300 301 305 308 311 314 316 317 319 320 322 323 323 324 324 324 324 325 325 324 324 326 328 328 327 327 326 326 322 326 319 321 327 329 329 328 328 327 327 327 328 327 325 324 322 323 321 319 317 316 315 315 315 314 314 313 313 312 311 310 310 307 307 309 307 307
291 289 286 285 287 287 285 288 290 291 289 287 286 286 289 291 290 290 290 292 293 295 295 295 295 295 295 295 296 297 297 299 299 301 304 308 311 315 316 317 319 320 321 322 323 323 324 324 325 325 325 325 325 326 325 328 327 323 319 317 320 322 321 320 322 323 326 326 326 327 327 327 325 324 323 322 323 321 319 318 316 313 314 315 315 314 312 312 310 310 311 311 311 308 305 308 307
291 290 288 287 288 287 286 287 289 290 290 287 285 285 286 287 289 289 291 292 292 294 293 293 293 294 296 295 294 296 298 299 299 299 299 303 307 311 315 317 318 318 319 321 322 323 325 324 325 325 325 325 325 324 324 325 321 318 316 313 314 315 313 319 320 322 325 324 327 327 327 326 324 323 323 322 320 322 321 320 318 317 315 314 315 314 312 311 311 312 312 311 310 310 309 307 305
289 291 290 290 290 289 288 290 289 286 286 287 288 281 279 281 285 290 293 291 291 293 292 293 294 295 294 293 295 296 297 298 299 299 299 300 305 309 312 314 316 317 319 321 322 323 324 324 325 325 325 325 325 324 324 323 323 323 318 319 317 317 317 318 321 323 324 323 326 328 327 327 326 325 323 323 323 322 322 322 320 318 315 312 311 313 313 311 311 311 312 312 311 311 311 306 303
287 289 293 292 291 290 289 288 287 281 280 285 287 282 274 280 284 287 289 288 291 290 290 293 294 294 294 295 296 296 297 297 296 297 298 298 301 306 310 312 315 316 318 319 321 322 323 324 324 325 325 325 325 324 322 321 322 323 322 322 322 320 320 320 319 319 324 324 324 325 326 325 326 326 324 323 322 321 321 320 319 318 317 315 313 314 314 314 313 313 312 310 310 308 307 306 307
286 292 292 293 292 290 289 289 287 282 285 288 284 281 278 279 283 284 285 285 288 290 290 291 293 293 294 295 296 296 297 297 298 297 298 299 300 304 308 311 314 316 317 318 319 321 322 322 323 323 324 323 324 324 321 322 323 323 322 321 321 320 320 320 317 314 314 317 321 323 324 324 324 325 324 322 322 320 319 320 319 318 318 318 315 315 315 315 312 310 309 309 309 309 309 309 308
289 292 294 292 292 292 290 289 285 285 286 281 283 286 281 277 281 285 285 286 286 287 289 291 292 293 294 295 296 296 296 297 297 297 297 299 300 301 306 309 313 314 315 316 317 319 321 321 321 322 323 322 322 322 321 321 322 323 322 322 320 319 319 315 308 309 314 314 319 320 322 323 323 323 323 323 322 322 320 321 321 319 318 317 313 315 314 313 312 311 309 309 309 309 309 309 308
291 293 295 295 293 291 290 286 286 286 282 279 281 282 277 277 279 281 283 284 285 287 291 292 293 294 295 295 295 296 296 296 296 297 297 298 300 301 304 306 308 312 313 313 313 314 317 318 318 318 320 321 321 320 320 321 321 320 321 320 320 318 313 308 310 312 313 313 316 315 319 320 321 321 321 322 321 321 321 320 320 319 317 317 312 313 313 313 312 311 311 310 309 308 307 307 307
295 294 292 290 287 286 284 284 283 284 278 279 280 282 281 277 281 285 285 285 287 291 290 289 290 292 293 295 296 297 296 296 296 296 296 296 296 298 298 302 304 303 302 304 309 311 312 314 316 316 319 319 318 319 319 320 321 320 321 320 320 318 314 312 311 311 312 312 315 314 316 318 318 320 319 319 321 320 320 318 320 319 317 313 313 314 312 311 311 311 310 308 307 307 306 305 304
295 291 287 289 287 284 284 282 284 279 276 278 279 281 280 276 277 281 285 285 285 288 289 293 293 292 293 294 295 295 295 295 295 295 295 295 295 296 295 298 299 299 299 301 304 307 310 312 314 315 316 316 317 318 318 319 320 320 320 319 319 318 315 313 314 314 313 314 315 313 312 313 315 317 318 318 319 320 319 318 318 318 316 316 315 315 313 312 311 310 309 308 307 305 306 304 305
292 289 289 285 279 281 278 280 278 277 277 280 280 281 281 281 282 284 283 286 288 286 290 292 291 291 290 291 293 293 293 293 294 295 295 295 297 297 297 297 297 298 300 301 303 306 309 310 312 314 315 315 316 317 317 318 318 319 319 319 318 317 315 314 315 315 313 314 313 312 312 314 314 315 316 317 317 317 317 316 315 315 314 314 313 313 310 309 308 308 306 304 303 303 304 304 302
289 288 285 283 276 275 275 272 273 273 277 280 281 282 280 281 283 291 291 294 294 291 289 289 290 291 292 292 294 294 294 294 295 295 294 296 297 297 297 297 298 299 299 300 301 304 307 310 311 313 315 315 315 315 317 317 317 318 318 318 318 315 314 314 314 314 312 313 312 313 313 314 313 315 314 316 315 315 314 314 312 311 311 311 311 310 307 306 305 304 300 300 300 301 300 299 300
289 288 289 284 281 275 273 272 273 275 278 278 281 280 276 279 283 284 291 294 294 290 288 287 288 290 291 293 294 293 294 294 295 295 295 297 298 297 298 298 298 299 300 300 301 302 305 308 310 311 313 313 313 315 316 316 316 316 316 316 316 314 315 314 314 312 312 311 310 311 312 311 312 312 313 312 309 310 310 308 306 307 306 307 307 305 304 302 302 300 299 301 301 303 303 304 303
288 288 289 284 284 283 279 279 277 275 275 277 278 279 280 283 283 287 288 289 290 290 288 288 291 292 292 294 295 296 296 296 295 295 297 296 296 295 295 296 297 298 298 299 300 301 303 306 308 311 312 312 312 312 314 315 315 314 313 314 315 313 311 312 310 308 310 311 310 311 310 309 310 309 308 309 306 307 306 306 304 305 304 305 305 306 304 304 302 302 301 302 303 303 304 303 303
287 286 285 285 289 286 279 279 281 278 277 276 278 280 280 282 288 292 289 288 290 288 289 288 290 289 288 292 294 295 295 295 295 296 297 298 296 295 297 297 298 298 299 300 301 302 303 304 306 307 308 307 309 310 313 313 313 313 313 314 313 312 312 312 312 310 310 308 309 309 309 307 305 307 308 305 305 303 304 304 303 301 301 303 304 305 305 303 303 302 302 301 301 301 302 303 302
287 282 286 290 291 288 284 277 276 276 275 275 275 278 278 280 279 285 286 288 290 290 290 290 289 288 289 292 293 294 295 295 294 294 295 296 296 297 296 296 297 299 300 300 301 301 303 304 305 307 307 308 308 310 311 312 312 312 312 312 312 312 312 311 311 309 307 307 306 306 304 304 305 305 305 303 303 302 301 300 301 298 298 300 302 302 302 302 301 299 299 300 299 298 299 300 299
289 287 292 288 282 281 281 279 272 271 271 269 274 276 277 278 282 281 285 286 290 292 291 289 291 290 291 292 292 291 291 291 292 293 294 295 296 297 296 297 297 297 298 299 300 301 300 300 301 305 307 307 307 308 309 310 311 312 312 311 310 310 310 310 307 307 306 308 307 306 306 305 301 301 301 301 302 301 300 297 298 295 296 296 296 298 298 299 299 298 297 298 297 298 297 296 296
290 290 287 287 286 283 280 281 278 278 273 271 274 277 278 281 283 283 287 286 288 289 287 288 291 292 292 292 293 293 292 292 293 293 293 294 295 296 297 297 297 298 298 298 299 299 301 301 301 301 302 302 304 306 307 309 309 310 308 306 306 309 308 308 307 307 306 307 307 306 304 301 302 301 302 302 300 299 297 296 294 295 295 293 294 293 295 295 295 295 295 296 295 297 297 297 295
285 285 284 286 284 285 284 283 281 279 271 269 269 272 275 280 285 287 291 291 291 290 291 291 291 291 291 292 293 292 292 293 293 293 294 295 296 295 294 294 295 295 296 297 299 301 301 301 302 302 304 304 305 306 307 309 308 308 306 306 306 305 305 305 305 306 306 305 305 304 304 302 299 299 299 298 297 297 297 296 295 295 295 294 294 293 293 294 295 295 296 298 297 298 297 295 294
289 288 286 287 283 280 281 280 281 278 278 274 271 276 277 283 286 291 291 293 292 292 290 291 291 291 291 291 291 291 293 293 293 294 294 294 292 292 291 292 293 293 294 296 298 299 299 301 303 303 304 306 306 306 306 307 306 307 306 306 304 302 304 304 305 304 305 303 301 301 300 298 299 296 297 297 296 295 294 296 296 295 294 294 295 296 292 294 296 297 297 299 296 296 295 292 294
Wind_Speed
6 5 4 0 3 3 2 4 1 3 2 1 2 0 2 1 2 3 2 0 4 2 1 3 3 3 2 3 9 6 0 2 1 5 2 1 3 10 9 11 10 9 8 5 4 4 4 8 10 11 12 11 10 11 10 11 11 10 10 13 13 13 13 13 14 14 14 15 15 15 15 14 15 16 16 16 16 16 17 17 17 17 18 18 18 18 19 18 18 18 18 18 18 17 16 16 17
3 5 2 0 1 2 1 1 3 3 5 3 3 2 2 0 3 6 5 3 2 3 1 7 10 13 14 12 10 4 4 3 3 1 1 2 8 8 11 12 12 12 8 5 5 4 4 6 10 10 11 10 10 11 12 12 12 11 10 13 13 13 12 13 12 12 12 15 14 14 14 15 15 16 16 16 16 16 16 17 17 17 18 17 18 19 19 18 18 18 17 18 18 17 17 17 18
3 5 4 5 4 4 1 3 1 0 2 1 3 3 1 2 5 4 4 5 6 6 6 9 9 6 3 2 4 2 1 4 4 2 4 7 12 8 11 11 10 10 9 6 5 5 4 6 9 10 11 11 10 10 11 11 12 11 10 10 14 13 12 11 13 14 13 14 14 14 14 14 15 15 16 16 16 16 17 17 17 17 16 17 17 18 18 18 17 17 18 18 19 17 17 17 17
1 3 2 3 1 4 1 2 3 3 0 3 1 2 1 4 5 4 4 6 7 5 2 1 4 1 5 9 2 3 4 2 1 5 6 8 5 10 10 11 10 8 7 6 5 5 4 7 9 10 11 11 11 10 10 12 12 12 10 8 13 13 12 12 12 11 12 13 14 14 14 14 15 15 16 16 16 16 16 16 17 16 17 17 18 18 18 17 17 17 18 18 19 18 18 18 17
3 2 2 4 3 2 1 0 2 2 0 3 3 3 2 3 5 4 3 2 2 3 3 3 5 4 2 6 1 1 5 1 3 1 3 2 8 9 10 10 9 9 8 6 6 5 4 9 9 9 11 11 11 10 11 12 12 12 11 9 11 13 13 13 12 11 12 12 14 14 14 14 14 15 16 15 15 15 16 16 16 16 16 17 17 18 18 17 16 17 17 18 18 19 18 18 18
3 3 3 2 0 3 4 1 1 2 6 4 2 3 4 5 7 5 3 1 1 3 4 4 5 4 3 2 2 2 4 5 3 1 3 7 12 12 11 10 9 8 8 7 6 5 5 10 9 9 11 11 11 11 11 13 12 12 11 9 11 12 12 12 12 10 11 12 12 14 14 14 14 14 15 15 15 16 15 15 16 16 16 17 16 17 17 17 16 16 17 17 18 18 18 18 17
1 4 4 4 2 4 4 2 3 3 7 7 4 5 10 6 5 8 4 3 2 5 1 4 6 6 5 0 2 1 3 2 3 3 3 10 12 12 11 10 9 9 8 7 6 5 6 10 10 10 10 11 11 11 11 12 12 12 11 10 12 12 13 13 11 10 11 13 12 12 14 14 14 14 15 15 15 15 15 15 15 15 16 16 16 16 16 16 16 16 16 16 16 16 17 17 17
2 2 1 2 1 2 0 1 3 5 2 7 3 9 8 9 6 6 6 3 3 2 1 5 2 6 0 2 2 2 3 2 3 6 10 10 12 13 11 10 10 9 8 7 6 5 8 10 11 10 10 11 10 11 11 12 12 12 12 12 13 12 12 12 11 11 10 11 13 12 12 13 14 14 14 14 14 14 14 15 15 15 15 15 15 15 15 15 14 14 14 15 14 15 15 16 16
3 3 0 4 0 1 1 2 3 3 5 0 3 1 7 7 6 8 4 1 2 2 4 3 4 7 2 3 1 3 1 1 6 11 12 11 12 12 9 10 10 9 9 8 7 5 5 8 11 11 10 10 11 11 11 12 13 12 12 12 11 10 10 11 11 11 10 11 12 11 12 13 12 13 13 13 14 13 13 13 14 14 15 15 15 15 15 14 14 14 14 14 14 14 14 15 15
1 2 1 1 3 3 2 4 0 2 2 2 7 10 7 5 4 2 9 4 4 6 1 3 2 4 4 5 1 1 1 3 10 10 10 12 12 10 10 10 10 12 10 8 7 6 4 9 11 11 10 10 10 11 11 11 11 12 11 12 10 10 9 10 11 11 11 11 11 11 11 10 12 12 12 12 12 13 13 13 13 13 13 14 14 14 15 14 13 13 13 13 13 13 13 13 14
0 4 2 2 1 1 3 4 3 4 1 1 1 2 5 5 5 3 4 7 1 5 2 3 6 7 4 1 1 3 2 5 13 12 11 11 9 9 10 9 9 11 11 10 9 6 5 5 10 11 10 10 9 9 10 9 11 11 11 12 12 10 10 9 10 11 11 12 11 12 12 12 11 13 14 13 13 13 13 13 13 13 13 13 13 14 14 13 13 13 12 12 12 11 12 13 14
1 1 1 3 2 5 4 2 2 5 4 0 3 3 2 5 4 6 4 9 3 4 4 5 5 5 4 2 1 0 2 6 12 11 10 8 7 9 10 8 9 9 11 10 9 6 5 5 5 8 10 10 9 9 8 9 10 11 11 12 12 11 10 9 10 11 11 11 11 11 11 13 14 13 13 13 11 11 13 13 13 13 13 12 13 13 13 12 12 12 11 11 10 10 11 12 13
2 1 5 4 3 2 2 1 3 1 1 3 5 4 3 4 6 9 6 5 5 6 1 4 11 3 3 2 1 0 4 7 6 9 9 7 8 8 8 8 9 9 10 9 10 8 6 4 5 5 6 10 8 8 8 9 9 10 11 12 11 11 10 9 10 11 11 11 11 11 10 12 13 13 12 11 10 11 12 11 11 12 12 12 12 12 12 12 11 11 10 10 9 9 10 11 11
2 5 6 4 1 3 4 2 0 5 4 4 2 1 6 2 4 7 8 7 4 7 2 6 7 5 3 3 1 4 7 7 7 7 6 7 8 8 9 8 8 9 9 10 10 10 7 5 5 4 6 6 5 6 8 8 9 9 10 10 10 10 9 9 9 9 10 10 10 10 9 10 11 11 10 10 8 9 9 9 9 11 11 11 11 11 11 11 11 10 9 9 8 8 9 9 10
1 1 3 2 0 1 1 3 5 4 6 3 3 5 2 3 3 5 11 8 6 1 1 3 4 4 5 9 4 10 10 10 8 6 7 7 9 8 9 8 8 8 8 9 9 9 8 6 5 5 5 5 5 5 4 6 9 9 9 9 10 9 9 10 9 9 10 10 10 9 10 10 10 11 10 10 9 9 8 8 9 9 11 10 11 11 11 11 10 9 8 7 7 7 8 8 9
2 3 2 2 3 3 4 3 1 3 6 5 3 5 4 1 2 6 3 4 3 2 0 2 1 1 5 11 7 16 12 10 8 7 8 9 8 7 9 8 8 8 7 8 9 8 8 8 6 5 5 5 5 5 4 4 7 9 8 9 10 10 10 10 10 9 9 9 10 9 9 8 8 7 9 7 9 8 8 6 8 8 10 10 10 10 9 9 9 8 7 6 6 6 7 7 7
2 2 0 2 5 3 4 3 5 3 3 4 2 4 5 3 0 0 0 0 9 0 4 1 0 1 10 5 3 15 11 10 9 8 8 8 8 7 7 7 7 6 5 7 8 8 8 8 8 6 6 5 5 5 4 4 5 8 7 9 9 10 10 10 9 9 8 8 8 8 7 5 4 4 5 4 6 5 8 9 8 8 8 8 8 9 9 8 8 7 6 5 5 6 6 6 6
1 2 3 1 4 4 5 5 7 1 3 5 5 7 6 5 1 1 4 7 4 3 5 2 4 5 1 1 9 15 13 13 11 12 8 10 8 8 8 8 8 9 7 7 7 8 9 8 9 8 6 7 6 5 4 4 4 6 4 4 4 6 8 8 7 5 6 4 7 6 4 4 4 3 4 5 4 4 6 9 8 8 7 7 7 8 8 7 6 5 5 5 6 6 5 4 4
3 2 3 7 5 6 5 2 5 2 5 8 9 5 8 8 8 3 5 1 4 4 2 2 4 5 6 7 12 15 13 13 12 12 11 14 12 13 10 8 9 9 9 7 7 8 8 8 8 8 8 7 7 6 5 5 5 4 4 4 4 5 5 5 5 5 4 4 4 4 5 4 4 3 3 4 3 5 6 8 8 8 8 8 8 7 6 6 5 5 4 4 4 4 3 3 3
3 5 4 6 6 4 4 3 3 6 1 3 4 5 5 5 5 1 4 8 3 10 7 0 3 4 5 7 12 14 14 14 13 13 11 13 12 13 11 11 10 10 10 8 8 7 8 8 9 9 8 8 7 6 5 5 5 5 5 4 4 4 4 4 4 4 4 4 4 4 4 3 3 3 4 7 6 4 4 6 7 7 8 7 7 5 5 5 4 4 3 3 3 3 2 3 3
2 2 5 5 4 1 2 1 2 3 5 5 6 3 4 4 4 4 6 7 5 4 8 12 12 12 10 11 12 13 13 13 13 10 10 11 10 9 11 12 11 10 9 7 7 8 9 9 8 8 8 8 8 6 7 6 5 5 5 4 4 4 4 4 4 4 4 4 4 4 3 3 3 4 4 3 4 3 4 3 3 3 3 3 4 3 2 1 2 1 1 1 1 1 2 3 4
3 5 5 4 0 2 7 3 1 0 5 5 3 9 7 2 1 5 13 10 10 12 12 5 12 14 15 13 13 12 13 14 14 12 12 13 14 12 8 6 4 6 7 8 9 8 9 9 9 8 8 8 8 7 7 6 6 5 6 5 5 4 4 4 4 5 5 4 4 4 4 4 4 4 3 3 3 4 4 3 3 3 2 3 1 2 1 0 1 1 0 1 0 1 2 2 3
3 2 2 3 4 2 1 1 1 3 3 6 7 6 4 8 3 5 12 13 4 2 7 8 13 16 17 16 15 13 13 15 16 15 14 13 12 11 11 9 10 10 8 8 8 8 9 9 9 9 9 9 9 8 6 6 6 6 5 6 6 6 4 5 5 4 5 4 4 4 5 4 5 4 4 4 4 4 4 3 3 3 3 3 2 3 2 1 1 1 1 1 1 2 3 4 3
1 4 1 5 5 7 2 1 2 2 8 10 4 3 6 6 6 3 8 5 2 4 8 11 12 11 11 13 15 18 18 17 18 16 15 15 15 14 12 11 9 7 8 8 8 8 9 11 10 10 10 10 8 8 7 7 6 6 6 6 5 6 6 5 5 5 4 5 4 5 5 6 6 5 5 5 5 4 5 4 3 3 3 3 2 2 2 1 1 0 0 0 1 1 2 3 1
2 3 3 3 1 3 2 2 1 1 5 1 5 6 8 10 6 5 8 7 3 2 5 8 9 11 12 15 15 14 14 14 14 13 8 6 7 7 6 6 7 8 10 9 8 8 10 10 10 11 10 11 9 9 8 7 7 7 6 6 6 6 6 6 6 5 5 5 5 5 5 6 5 6 6 5 5 5 4 4 4 5 4 3 3 3 2 3 2 1 1 2 2 3 1 2 2
1 5 1 2 2 1 1 1 2 1 2 4 4 5 1 3 1 3 8 7 3 3 8 11 11 12 13 14 15 14 14 15 14 13 14 10 7 9 9 8 9 10 11 9 9 8 8 10 11 11 11 11 10 9 8 8 8 8 7 7 7 6 6 6 5 6 6 6 6 6 6 6 7 6 6 5 6 6 5 4 5 5 5 4 4 5 5 4 4 2 2 2 2 3 3 4 1
4 3 4 6 3 1 0 3 3 1 1 5 8 4 3 1 1 7 3 5 4 6 9 11 14 15 14 12 12 13 14 15 16 14 10 8 8 11 11 8 10 11 9 10 9 8 8 9 10 10 11 10 9 10 9 9 9 8 8 8 7 7 7 6 6 6 6 6 6 6 6 6 6 6 6 6 5 6 5 5 5 5 5 5 5 5 4 5 4 5 5 4 3 4 5 3 2
5 3 7 6 5 2 0 0 4 0 0 3 6 2 2 3 0 7 4 4 5 10 9 12 13 14 14 13 13 12 12 13 12 11 15 14 12 12 12 12 11 10 11 12 10 8 8 10 11 10 11 11 11 10 9 9 9 9 9 8 8 8 8 7 7 7 7 6 6 6 6 6 6 5 5 5 6 6 6 6 6 5 6 5 5 5 5 5 5 4 4 3 4 4 4 3 2
2 4 1 5 4 3 3 4 3 0 2 4 5 2 1 1 8 7 4 6 4 9 10 12 12 11 12 12 11 10 12 11 9 10 14 14 12 11 13 11 11 11 9 11 11 9 11 10 10 10 11 11 12 11 9 8 9 9 9 9 8 8 8 7 7 7 7 6 5 7 7 6 6 6 6 6 6 6 5 6 5 6 6 6 5 5 5 4 3 2 3 2 2 2 2 3 1
2 3 2 7 4 5 7 0 0 2 2 2 3 6 7 10 15 2 2 9 5 6 8 10 10 9 9 9 10 10 8 7 10 13 12 12 12 12 13 11 11 11 9 9 10 12 10 8 8 8 10 12 12 10 9 8 8 8 8 8 8 8 8 8 8 7 7 6 6 5 7 7 6 6 6 6 6 6 5 5 6 6 5 4 5 4 5 5 4 3 4 2 4 4 4 4 2
2 1 1 3 3 5 3 4 4 5 1 2 0 7 7 10 8 6 3 8 12 9 8 10 9 9 9 9 9 11 11 11 14 15 14 13 12 12 13 11 10 11 8 9 13 14 11 10 9 8 10 11 11 10 11 10 8 8 8 8 8 8 7 8 8 7 7 7 6 6 5 6 6 6 6 7 6 6 6 5 5 6 4 4 5 5 5 4 3 5 3 3 3 3 3 3 3
4 1 6 1 5 5 5 0 7 8 1 1 4 4 10 7 7 5 5 7 8 10 8 9 9 9 10 9 10 10 11 10 12 13 13 13 13 12 13 13 11 11 12 13 12 11 12 11 11 10 10 12 11 11 10 9 9 8 8 8 8 8 7 8 7 7 7 7 7 7 6 5 6 6 5 5 6 6 6 6 6 4 4 4 4 3 3 4 4 4 4 4 4 4 3 5 3
3 6 3 3 2 6 4 3 4 3 3 0 5 5 3 7 6 5 4 11 9 9 8 9 9 9 9 9 10 10 8 8 9 12 12 12 11 11 12 13 12 13 13 12 12 12 12 11 12 12 13 13 12 11 10 8 8 8 8 8 8 8 8 7 7 7 6 7 6 7 7 7 7 6 6 6 6 6 6 6 6 5 4 5 5 4 5 4 4 4 4 4 4 5 4 5 5
7 2 6 3 5 3 5 3 2 3 4 5 3 3 6 3 3 2 3 8 11 10 10 10 9 7 8 8 9 9 10 10 13 14 14 13 11 12 12 13 13 12 11 13 13 14 14 12 11 12 11 12 11 11 10 9 8 8 7 7 8 8 8 7 7 7 7 7 7 7 7 7 7 6 6 6 6 6 6 6 4 5 4 4 4 4 6 3 3 4 5 3 4 3 4 4 6
10 6 5 7 3 4 5 4 4 5 3 5 5 6 11 10 4 2 4 5 8 13 12 10 10 8 8 8 8 9 10 11 14 13 13 14 13 13 12 11 12 11 9 12 12 12 11 10 10 11 11 11 11 10 9 8 8 6 6 7 7 8 7 7 7 7 7 6 7 7 7 6 7 6 6 6 6 6 5 5 5 5 5 5 5 5 4 4 3 3 5 4 2 4 4 3 4
4 1 3 3 4 5 4 5 2 12 6 5 6 10 12 13 11 4 3 4 8 7 2 4 6 7 7 8 9 9 10 14 12 10 11 12 12 13 12 11 11 10 11 10 11 11 11 10 9 10 11 11 9 9 8 8 7 8 8 5 8 9 8 8 7 8 7 7 7 7 7 7 7 7 7 6 6 6 6 6 6 5 6 6 6 6 7 6 7 5 6 5 4 3 2 2 1
7 8 5 7 7 6 4 4 3 2 3 9 10 11 12 13 11 6 5 2 3 5 7 8 7 8 9 9 11 12 12 15 11 10 10 13 14 13 12 11 11 11 10 11 11 12 13 13 12 13 11 11 10 10 10 10 10 8 7 10 11 9 8 8 8 7 7 7 8 8 8 7 7 7 7 6 7 6 6 5 6 5 6 6 6 8 6 6 6 6 5 4 4 3 2 1 1
6 6 6 8 4 7 4 4 0 2 5 6 6 6 12 12 7 5 1 3 7 9 10 9 9 8 9 11 13 13 15 6 2 5 8 8 10 10 9 9 9 12 12 11 12 14 13 13 14 13 10 11 12 13 11 11 11 12 11 11 9 8 8 9 9 8 9 7 8 8 8 8 8 8 7 7 7 6 6 5 5 7 6 6 6 5 5 5 4 4 3 2 3 6 4 4 4
8 7 6 5 8 5 6 2 2 1 2 8 0 7 12 12 11 5 4 7 7 11 11 13 12 10 10 11 12 12 7 9 8 10 10 10 11 11 11 11 11 14 14 15 15 14 14 13 12 12 11 12 12 12 11 12 10 9 10 7 9 5 5 7 7 7 7 8 8 8 8 8 8 8 7 7 7 6 6 6 6 6 6 6 5 5 5 5 5 5 5 6 3 0 2 2 4
8 8 6 8 4 4 4 3 2 0 3 2 2 5 9 8 6 7 6 7 7 9 10 10 9 13 13 15 15 13 13 13 12 12 13 12 11 11 11 12 13 11 11 11 12 15 13 12 12 12 12 12 12 12 13 12 10 6 5 4 5 7 6 5 5 5 7 8 9 8 8 8 8 7 7 7 6 6 7 7 6 6 6 6 6 6 5 6 4 4 5 5 2 2 2 4 4
9 8 7 7 3 5 4 4 2 0 0 3 2 2 7 6 7 6 6 9 8 8 4 6 8 8 9 4 4 9 15 15 14 11 10 9 10 13 16 15 11 12 13 15 15 14 12 14 14 14 13 13 12 12 13 9 6 5 4 3 4 3 2 4 5 7 8 8 7 9 9 7 7 7 7 7 7 7 7 6 7 7 6 7 6 6 5 7 7 6 7 6 6 6 5 4 1
8 9 10 10 11 6 4 1 6 1 3 3 3 1 6 5 6 11 10 2 6 8 7 9 11 11 8 8 12 11 10 9 13 15 15 14 14 12 11 11 13 14 15 15 13 15 13 13 14 13 11 11 12 12 13 10 10 11 9 8 8 7 8 7 12 15 11 10 12 7 6 8 7 7 7 7 7 6 7 6 6 6 5 6 6 7 7 4 3 3 6 7 7 7 7 4 3
7 6 9 12 8 4 5 4 3 1 4 3 1 8 6 5 4 8 9 6 11 4 5 11 9 10 9 12 14 13 13 12 8 7 7 8 11 10 12 13 14 14 15 11 11 13 13 13 14 14 13 11 12 11 11 10 10 10 13 14 12 12 12 10 8 4 7 6 4 6 6 6 7 8 7 7 6 6 6 5 6 6 6 5 5 5 5 5 5 6 6 5 6 3 2 4 5
6 5 3 5 4 4 7 7 6 2 1 1 2 3 4 6 8 4 3 4 9 10 8 10 9 10 11 12 14 12 11 11 11 13 12 11 11 14 16 17 15 17 14 11 12 11 14 14 13 14 12 12 11 10 11 12 13 12 12 12 12 11 12 12 7 5 4 5 6 7 6 6 7 7 7 6 6 6 6 5 5 5 5 5 5 6 6 5 4 2 4 5 3 5 5 5 4
5 6 6 7 8 7 7 7 5 0 1 4 1 1 1 5 7 4 1 1 6 10 11 12 12 13 13 13 13 12 13 13 12 12 12 13 13 13 13 13 15 12 9 11 12 12 12 12 12 11 12 10 10 11 12 12 13 13 13 12 11 10 9 6 4 4 6 6 8 6 7 7 6 6 6 6 6 6 6 6 6 5 5 5 5 4 4 4 5 5 4 4 5 5 6 5 3
9 3 3 2 4 4 3 4 5 0 1 6 4 3 3 7 6 5 1 2 6 8 11 13 14 16 15 13 13 14 11 9 9 11 10 10 11 12 12 10 7 10 9 8 7 6 8 8 10 11 12 10 10 11 12 13 12 11 11 12 13 11 7 4 5 6 6 6 8 8 7 7 6 6 6 7 7 6 6 6 6 6 6 6 6 5 5 4 4 4 4 4 4 3 2 2 4
3 9 3 2 4 2 3 4 2 2 3 6 6 4 3 4 5 7 6 6 8 9 6 5 6 8 10 12 13 12 11 10 9 9 8 8 7 7 5 9 8 5 5 5 6 7 7 8 9 11 13 10 9 11 12 13 12 11 13 13 14 13 10 8 7 7 6 6 8 8 7 7 6 6 5 6 7 7 6 6 6 5 5 5 5 6 6 5 5 4 4 3 3 4 4 3 2
8 3 4 4 0 4 2 1 3 3 6 5 2 3 2 7 4 6 9 5 3 5 7 10 9 8 10 9 10 10 8 8 8 7 9 7 5 5 5 8 7 7 6 7 6 6 8 8 9 11 10 11 9 10 11 12 12 12 11 12 13 12 11 10 12 11 10 11 9 8 5 5 5 5 6 5 6 7 6 6 5 5 5 5 6 4 4 5 5 4 4 5 3 3 3 3 2
5 6 7 7 2 2 4 0 5 6 6 1 0 3 1 9 7 8 6 8 7 7 10 10 8 7 7 8 9 7 6 6 8 9 8 6 8 8 8 8 6 7 10 10 10 9 9 9 11 13 13 11 11 11 13 13 12 13 12 12 12 10 10 11 11 10 9 9 8 7 8 8 6 6 6 7 6 8 6 6 5 5 4 4 4 4 4 5 4 4 4 5 5 4 5 4 3
8 9 8 8 4 5 7 3 1 3 6 5 1 0 4 3 7 13 16 17 16 8 6 8 7 7 7 7 6 5 5 7 8 7 7 7 8 7 7 8 9 9 9 11 10 10 10 10 12 14 15 12 11 11 13 13 13 12 11 11 10 9 10 10 9 10 9 8 8 9 9 8 8 9 8 8 7 7 5 5 5 5 4 4 5 4 4 4 5 5 5 5 5 5 5 4 4
9 4 9 6 4 4 5 3 7 8 8 1 3 2 6 5 6 4 11 11 11 3 4 6 7 7 5 4 4 3 3 5 5 7 8 9 10 9 9 9 9 9 10 11 10 11 10 11 11 14 13 12 12 14 12 13 12 11 10 9 9 8 10 9 9 7 8 8 7 7 7 6 7 7 8 6 6 6 5 4 5 5 5 5 4 4 4 4 4 4 4 5 4 5 5 5 4
5 4 5 7 10 6 4 6 4 4 2 1 2 6 5 7 3 7 6 9 9 6 4 2 7 8 4 3 4 5 5 5 4 5 6 7 6 5 5 5 5 5 6 5 7 7 9 11 11 13 13 11 11 10 10 11 11 8 8 9 10 10 8 8 6 5 6 7 8 8 7 7 6 6 5 5 5 6 5 5 5 6 5 5 5 5 5 5 5 5 4 4 5 3 5 4 4
4 5 10 5 4 7 3 3 1 3 3 7 2 4 5 8 9 11 4 3 7 4 5 4 6 5 2 5 5 6 6 5 5 6 7 7 4 4 5 5 5 5 6 8 8 8 9 8 8 9 8 6 8 10 10 9 9 9 10 10 9 9 10 10 10 9 8 6 7 6 7 7 5 6 6 5 6 5 5 6 6 6 5 5 5 5 6 6 6 6 6 5 5 5 5 6 5
7 6 8 2 2 4 5 5 1 1 6 6 2 7 3 1 6 4 5 5 10 7 7 6 5 3 5 7 7 7 8 8 5 6 6 5 4 5 4 4 5 6 7 6 7 6 6 7 8 9 8 10 9 9 9 8 9 10 10 10 9 10 9 8 7 8 6 7 5 5 5 6 7 6 6 5 5 6 5 6 6 5 5 5 6 5 6 6 6 5 5 6 5 5 5 3 3
6 8 6 10 6 8 2 3 4 4 5 4 2 2 4 6 6 2 3 5 8 10 7 3 7 7 8 8 9 7 7 6 7 8 8 7 6 5 5 6 6 6 5 6 5 5 4 4 4 5 8 7 7 6 6 6 8 9 9 9 9 8 6 7 5 6 6 7 8 7 7 7 5 5 5 6 6 6 7 6 6 6 5 5 4 5 5 5 6 5 5 5 5 5 4 3 4
0 2 1 1 2 4 4 7 3 5 6 2 7 1 7 6 7 7 8 7 6 5 5 6 9 8 8 8 9 9 8 9 9 8 7 6 6 6 6 7 7 7 6 5 5 4 5 5 5 5 4 4 5 7 7 9 8 7 7 5 5 6 7 7 7 8 8 8 8 7 6 5 7 5 6 7 7 8 7 7 6 7 6 5 5 5 6 6 6 5 6 5 4 5 5 5 4
2 3 6 2 0 1 4 1 5 5 3 3 2 4 6 7 8 8 11 10 9 9 10 8 8 7 8 8 8 8 8 8 8 7 6 6 6 5 5 5 5 3 4 4 5 6 6 5 5 6 8 7 8 9 8 8 7 6 6 7 6 5 6 6 6 7 8 7 7 7 6 6 5 6 7 7 7 7 7 7 7 7 8 7 6 5 5 6 6 6 5 6 6 6 6 4 4
11 11 12 13 9 5 9 11 3 2 3 4 3 12 5 8 6 12 12 12 9 9 6 7 7 7 6 7 6 6 7 7 6 6 5 5 5 4 3 1 1 3 3 5 4 4 5 6 7 7 7 8 9 8 8 6 5 6 6 6 6 5 6 6 7 7 7 7 6 6 7 7 8 6 7 7 7 6 6 7 7 7 6 6 6 6 5 6 7 7 6 6 5 5 4 3 3
Wind_Direction
339 347 329 68 81 100 70 360 75 312 48 264 332 61 189 136 215 74 134 356 64 290 288 15 46 66 149 186 135 136 132 135 208 134 215 221 139 134 130 131 133 131 138 140 134 127 123 128 124 119 122 126 129 119 110 106 111 112 114 108 105 102 103 100 91 87 93 91 89 91 92 94 98 95 92 92 89 82 83 85 84 83 83 81 82 84 84 83 85 87 86 80 75 70 68 74 83
328 338 12 325 121 76 287 111 97 351 40 26 270 112 187 303 84 155 156 141 185 136 112 91 71 74 79 106 123 126 33 359 213 172 69 104 121 123 139 140 143 140 141 137 131 125 125 128 128 126 124 125 120 116 107 111 114 116 115 113 107 101 96 95 105 114 100 93 92 89 89 87 87 92 93 92 90 87 84 84 86 84 83 85 84 83 84 86 87 88 85 78 73 63 63 77 83
339 7 10 25 28 69 64 37 286 57 67 345 279 212 325 123 163 207 182 137 139 132 134 99 99 84 82 80 30 38 238 313 70 54 101 143 127 159 147 142 140 138 137 136 131 131 131 136 136 131 127 124 119 117 108 109 112 119 115 113 107 103 99 103 95 87 96 92 91 91 87 86 90 93 97 94 89 85 84 86 85 85 86 84 85 85 85 87 88 89 85 73 64 63 74 83 84
67 47 103 65 292 29 61 24 91 125 93 214 303 284 164 174 196 198 198 157 152 148 177 59 57 278 111 64 118 85 71 107 334 140 131 165 157 144 144 139 137 133 128 132 134 133 139 142 133 133 128 121 119 114 113 110 109 114 116 103 111 107 99 91 91 96 91 97 98 97 95 93 96 98 92 90 88 89 87 84 87 89 88 87 87 88 89 91 91 91 81 74 71 71 79 85 87
42 333 85 91 103 359 93 179 139 100 268 206 187 270 235 188 187 171 218 222 200 137 82 124 78 354 72 120 132 161 211 133 148 79 115 102 127 141 139 137 139 135 136 136 134 137 144 139 136 133 133 128 124 122 116 111 113 119 118 114 113 107 104 100 101 103 100 87 92 93 95 96 95 95 93 92 92 89 86 85 84 84 86 86 86 89 89 89 91 90 81 76 75 74 77 84 88
55 52 7 86 128 179 52 17 343 243 218 154 162 232 197 191 165 172 181 235 3 69 124 70 149 173 30 338 164 116 157 135 193 87 137 151 143 141 142 142 138 139 139 135 136 141 149 142 139 142 136 133 128 124 118 114 116 118 121 127 114 109 108 108 106 104 101 105 94 94 96 95 94 95 95 92 90 88 88 86 87 87 86 86 86 87 87 89 94 90 81 76 76 76 78 85 88
6 35 357 25 6 55 170 144 222 213 276 162 205 182 175 193 194 132 159 91 344 57 354 127 115 97 80 295 21 68 279 201 114 171 146 151 140 141 145 145 141 140 141 140 139 147 154 149 147 141 135 134 131 129 126 119 117 121 123 118 111 108 108 112 109 105 107 107 107 103 99 99 99 97 95 92 88 87 87 87 84 83 84 84 87 88 88 88 92 89 79 74 71 68 72 80 85
73 108 305 102 233 44 102 199 233 157 267 166 219 161 182 177 178 141 166 105 180 108 48 123 135 96 223 26 148 272 345 178 162 120 126 143 142 146 148 147 141 143 143 142 142 150 156 153 144 136 137 138 137 134 128 125 121 124 121 112 109 112 114 111 112 108 103 102 106 106 100 95 95 96 94 92 91 90 90 88 87 87 86 86 85 83 82 85 89 88 78 70 66 64 67 76 84
355 87 345 79 179 29 57 238 264 238 276 344 134 248 176 175 186 142 140 213 65 103 133 150 184 91 216 51 72 277 331 93 106 124 138 145 149 152 149 149 145 146 146 145 144 154 155 156 143 142 141 140 140 136 132 128 128 130 123 112 110 112 118 118 117 116 112 113 101 105 108 102 100 95 92 93 93 94 94 93 93 91 89 87 86 85 84 84 88 86 78 70 65 62 65 76 82
28 90 285 147 127 243 4 300 57 237 249 194 169 176 176 181 194 178 137 115 169 127 144 111 123 116 137 110 95 348 134 145 120 125 145 152 152 150 146 149 149 145 146 147 147 152 157 155 146 143 144 144 142 141 135 131 128 124 122 117 116 117 118 123 121 120 117 109 109 112 107 105 102 99 99 94 92 93 91 90 89 89 89 87 85 85 84 84 85 84 77 69 64 61 64 70 79
31 9 141 86 29 230 218 263 268 311 292 358 255 206 194 161 150 151 144 144 182 139 177 139 46 122 107 166 217 255 281 157 136 150 156 152 150 147 144 146 146 149 148 150 146 149 156 155 150 147 146 144 144 141 138 134 132 129 125 125 123 122 122 128 128 122 123 113 114 111 78 74 87 95 91 89 89 91 92 89 88 89 89 89 88 86 85 85 85 84 79 71 65 61 61 63 69
34 113 39 106 190 174 229 186 269 262 293 342 215 186 218 174 136 130 150 131 194 119 173 140 180 140 78 106 253 326 116 169 154 152 149 140 141 144 143 144 146 153 149 148 142 150 150 152 151 151 143 143 144 142 137 136 133 132 130 129 128 126 127 131 131 118 100 118 118 114 98 94 95 94 93 95 94 95 97 98 96 91 91 91 90 89 88 88 89 86 83 76 69 67 64 66 71
124 120 88 101 226 154 204 187 257 220 329 252 181 208 141 157 180 161 162 134 153 127 192 225 140 87 119 172 268 288 163 189 164 153 141 129 140 140 139 143 148 148 147 146 144 150 150 151 153 148 144 141 140 138 138 136 135 136 133 132 132 130 130 133 110 106 107 104 108 105 100 97 96 97 93 86 86 93 96 97 99 99 99 98 96 96 94 91 88 86 81 75 67 64 65 67 68
121 181 130 212 71 133 138 204 71 148 256 240 257 137 154 174 237 166 134 130 188 150 240 154 132 126 73 82 198 202 200 190 178 155 131 124 136 140 141 142 145 149 152 150 151 151 152 153 154 146 143 138 137 136 137 138 137 135 133 132 131 132 130 112 105 105 106 103 103 103 101 100 99 99 96 91 87 87 90 89 99 104 104 102 101 100 98 97 95 91 85 75 67 60 60 62 59
221 139 83 119 157 82 255 146 207 172 232 201 210 138 149 277 137 181 154 142 207 193 111 55 166 133 213 159 219 198 191 190 173 154 124 119 135 143 140 143 146 150 155 156 152 153 156 152 153 151 146 142 141 139 141 141 136 133 132 132 130 126 113 113 111 108 109 110 106 106 104 103 103 102 101 100 95 94 88 89 92 102 110 108 107 103 101 100 97 94 88 76 66 62 57 56 53
150 81 82 138 240 175 269 192 66 115 251 187 234 139 101 336 152 148 236 147 170 19 82 160 347 214 163 170 202 181 176 172 167 135 121 120 135 142 140 144 147 157 160 159 159 162 157 157 156 157 155 152 147 145 145 142 139 137 135 132 130 127 124 122 119 115 115 114 114 110 107 101 98 99 99 95 95 89 89 91 101 106 112 111 108 110 107 106 103 99 95 83 73 63 56 50 40
59 79 184 43 241 160 252 164 142 208 239 230 252 172 156 180 231 256 297 36 132 132 53 0 283 14 172 190 190 145 160 162 141 133 117 128 142 149 144 147 151 156 162 170 166 164 161 161 158 161 162 156 151 147 145 144 147 138 133 133 134 133 130 131 127 124 120 120 118 117 107 102 104 101 94 98 92 93 92 87 91 93 99 109 111 113 112 108 103 98 99 94 79 53 34 36 37
78 192 126 201 200 170 208 183 184 223 148 220 199 194 127 150 178 181 74 31 56 61 72 339 16 11 245 310 139 144 152 157 156 147 145 148 158 156 158 161 160 166 171 173 179 169 164 168 167 165 162 163 156 151 149 146 148 138 139 138 136 136 133 132 133 138 136 137 132 125 119 118 112 111 109 106 104 101 94 98 96 96 86 91 110 118 114 109 106 111 102 97 83 51 24 18 11
155 107 122 217 184 235 158 191 208 157 243 191 192 167 169 188 141 202 119 201 139 82 15 24 55 18 59 105 132 142 155 163 161 164 158 163 169 166 165 165 168 165 173 177 182 177 173 170 170 169 171 167 161 157 155 155 152 144 149 148 146 147 149 143 147 146 149 148 150 138 135 130 129 126 129 125 116 109 112 109 107 102 100 93 90 95 115 112 110 104 93 95 77 45 33 6 1
218 126 214 236 210 239 226 191 225 209 191 188 159 213 167 195 144 145 158 172 186 161 152 337 141 139 130 131 141 150 161 168 171 168 171 172 172 168 167 170 174 177 175 179 176 182 176 174 174 174 172 170 165 165 158 163 162 156 156 156 153 159 163 159 158 160 162 164 153 139 140 133 127 120 123 121 111 104 105 106 110 108 107 105 102 93 86 99 98 68 71 54 47 31 20 4 1
249 129 190 225 203 203 277 167 235 234 178 194 189 113 159 209 193 149 144 120 237 238 203 167 179 161 153 154 151 157 165 170 175 177 175 178 178 175 176 177 175 174 172 168 174 183 182 177 175 175 173 172 170 167 166 171 168 163 161 161 164 168 174 174 171 169 176 175 156 152 147 130 131 132 131 127 120 120 120 123 117 117 108 108 107 107 103 73 65 52 28 47 19 20 13 350 1
117 211 190 213 109 190 258 245 159 139 141 135 142 143 206 110 44 136 155 170 201 205 202 208 157 157 152 159 164 162 170 175 181 181 186 183 179 178 172 171 159 164 161 174 183 179 185 181 176 176 173 175 176 173 177 172 167 170 167 172 167 175 179 186 183 180 181 185 169 163 139 137 143 143 146 145 144 144 144 160 157 138 136 158 134 140 144 118 61 66 107 191 337 7 347 325 317
238 315 248 234 224 246 245 288 182 122 121 141 164 209 93 164 197 187 175 193 224 184 166 172 167 166 166 158 158 168 175 181 185 189 185 188 186 181 177 175 170 177 176 183 178 182 183 184 181 172 176 177 180 178 174 170 181 182 178 173 171 180 180 184 199 191 189 188 176 162 148 158 159 166 162 163 165 164 168 182 180 174 167 182 190 150 195 220 180 92 120 240 0 353 333 319 315
174 242 266 252 217 227 247 241 294 109 152 191 182 106 156 160 200 185 193 228 222 212 159 167 171 156 146 154 172 173 179 182 191 191 190 191 186 184 177 177 181 171 172 181 179 182 184 187 183 175 177 177 179 176 174 179 183 179 180 175 189 180 174 190 200 196 187 191 181 180 166 165 165 171 178 173 179 173 184 190 185 187 187 194 180 175 181 227 220 124 78 344 306 295 271 288 331
187 266 240 260 220 236 259 255 302 116 178 236 126 155 206 187 183 110 224 226 241 169 141 150 151 152 163 166 177 180 182 187 189 193 193 199 196 184 179 176 176 173 183 188 182 180 189 185 180 181 177 180 177 174 179 182 181 182 178 181 190 184 187 194 197 197 184 195 183 171 164 165 172 175 176 186 168 188 188 184 190 205 196 198 171 211 191 193 219 200 217 246 270 272 229 251 248
232 239 255 296 266 290 267 293 271 152 125 126 122 212 292 214 263 201 220 216 206 109 139 148 154 160 172 180 180 180 185 189 189 189 195 191 183 183 195 185 180 186 191 187 185 188 184 185 182 183 178 181 177 175 183 181 182 183 184 186 189 182 198 195 191 203 196 185 186 171 170 169 178 180 184 180 174 194 193 189 195 213 209 188 176 201 212 183 197 199 227 249 252 255 256 251 216
310 312 326 278 266 175 313 205 268 271 143 170 167 206 220 301 94 256 226 197 132 113 147 161 159 174 181 183 187 188 185 190 189 192 189 190 193 194 197 193 189 194 185 193 195 191 182 182 187 183 179 179 179 181 180 184 181 186 185 189 185 189 195 190 193 201 202 189 188 177 169 177 181 186 182 181 192 192 196 187 201 208 222 197 189 205 197 198 190 191 198 210 217 227 237 247 229
282 12 342 306 323 293 284 109 252 311 274 162 142 159 310 305 43 232 218 164 155 139 153 168 175 177 185 188 187 192 196 197 192 182 191 192 198 195 196 196 196 189 191 198 195 189 183 187 185 185 179 178 180 187 180 182 185 187 185 189 190 188 184 190 194 195 201 200 186 179 172 175 179 193 188 185 191 193 197 198 201 194 215 208 193 199 195 204 195 203 200 203 217 212 237 262 248
307 63 13 298 323 309 242 187 227 121 239 149 143 80 281 243 232 224 216 141 147 147 162 172 184 188 187 188 192 192 200 194 190 195 201 200 197 196 201 199 194 195 201 195 192 188 192 190 186 185 179 178 183 186 187 183 182 186 187 191 190 186 184 187 194 197 196 201 204 183 178 175 180 181 197 193 195 197 194 192 192 203 203 196 192 195 193 196 197 205 235 219 240 234 240 266 293
315 70 142 314 307 297 250 148 68 135 260 198 146 211 246 233 233 239 210 153 142 142 167 181 186 187 193 192 194 202 203 194 199 204 202 201 199 199 201 198 196 198 194 197 189 196 193 191 188 182 183 181 185 184 184 185 183 184 188 189 187 188 185 187 195 196 194 198 201 216 183 184 184 188 181 197 192 198 203 200 196 204 199 181 180 177 187 185 194 195 228 183 222 202 218 235 229
40 257 84 232 263 261 269 179 171 162 194 173 139 211 258 242 246 229 202 173 161 176 185 187 187 189 192 196 199 204 208 199 200 204 205 202 199 201 203 198 196 197 189 193 196 195 189 189 185 189 185 186 183 183 184 187 181 179 184 187 188 187 188 188 191 192 194 195 195 210 209 193 197 189 190 181 190 191 200 211 216 214 185 172 173 191 182 189 185 204 182 196 219 228 224 242 206
310 65 232 244 191 281 296 11 157 167 265 125 122 253 239 252 266 244 193 177 173 181 188 192 192 193 194 196 203 207 210 207 218 217 209 203 198 199 200 201 193 196 194 194 196 191 192 189 186 188 186 189 190 186 185 183 183 181 182 185 184 189 188 191 191 192 194 196 193 195 205 210 206 191 182 177 180 188 194 206 214 205 189 177 188 179 172 187 199 209 216 188 205 244 242 256 208
298 215 322 249 169 246 344 249 212 152 123 348 168 211 297 280 254 274 210 174 186 185 193 198 201 200 196 199 204 208 206 219 226 223 217 211 208 203 202 203 196 196 197 193 192 193 194 192 187 189 188 192 192 191 186 183 180 183 183 184 186 186 192 195 193 193 196 197 199 197 197 202 214 201 179 180 176 189 196 207 208 197 188 185 181 184 193 200 186 207 227 218 199 224 229 255 266
250 205 218 226 201 201 247 304 234 210 143 198 243 226 234 236 305 302 190 192 180 194 199 202 203 202 204 204 206 206 208 208 215 215 216 210 209 207 205 205 201 196 198 196 195 191 194 192 191 192 191 192 191 189 188 185 186 182 184 187 187 190 196 194 193 190 199 201 197 206 201 199 207 212 193 183 187 187 192 198 194 191 186 185 184 180 206 198 205 194 224 228 209 210 232 239 258
179 185 185 244 270 223 216 165 224 138 239 186 207 234 256 270 283 296 209 195 195 200 196 193 197 204 208 209 212 214 211 212 221 214 209 206 207 209 206 205 206 200 196 198 197 196 191 190 191 193 189 191 192 188 186 183 179 184 184 184 194 201 199 198 192 198 199 197 204 202 202 202 205 210 206 187 188 185 188 191 187 191 180 184 181 188 199 199 208 211 215 236 216 225 230 238 261
204 138 190 208 236 231 230 237 267 172 175 218 197 213 241 253 255 253 253 199 196 226 233 215 215 209 207 210 216 216 217 223 223 212 206 206 206 203 204 203 203 201 197 195 196 194 193 187 190 191 192 189 186 184 178 181 177 183 188 196 204 208 202 199 202 204 194 201 202 199 202 203 203 206 207 198 195 188 186 189 194 182 185 174 184 195 205 191 200 206 225 220 230 241 231 244 228
297 303 305 256 233 262 261 256 255 237 153 210 200 217 232 238 240 220 215 165 213 225 227 225 218 208 209 212 214 219 219 222 216 204 199 203 205 205 204 200 201 199 200 193 192 195 194 189 184 192 192 183 181 183 185 183 187 190 197 198 206 200 201 198 204 205 202 203 197 200 201 202 204 205 206 195 201 193 192 191 185 188 188 187 192 208 200 205 205 200 208 189 212 237 250 145 194
262 281 287 277 238 245 238 228 343 233 176 246 219 233 241 243 257 244 204 161 223 213 222 229 223 218 215 211 217 218 222 238 199 212 218 210 209 207 203 203 198 198 206 193 194 197 197 195 192 191 184 187 191 190 187 190 193 194 193 202 196 191 193 199 206 204 205 198 200 202 201 201 204 205 202 197 200 193 192 187 190 194 187 198 203 198 189 197 198 202 177 193 194 199 227 189 206
233 239 256 263 263 236 286 267 262 257 161 265 230 215 247 249 247 242 171 204 226 218 207 211 205 213 218 220 223 225 231 233 213 219 212 204 201 200 197 202 206 205 199 198 198 196 200 200 198 190 188 189 196 193 186 196 197 196 193 194 188 187 206 204 208 204 197 200 202 202 200 199 199 203 200 196 196 196 195 189 198 191 189 186 184 189 190 199 197 201 190 200 209 106 225 215 197
234 243 244 242 247 156 257 281 157 311 136 258 182 197 265 271 264 256 227 209 240 229 218 227 206 207 212 214 210 210 218 223 217 212 213 209 200 198 198 203 206 202 203 204 203 203 201 202 197 196 194 194 195 196 196 198 194 186 183 157 175 173 187 194 204 202 203 203 207 200 203 198 195 197 195 194 197 195 192 196 188 179 188 180 186 190 192 205 193 195 199 212 165 224 207 241 205
235 232 241 252 259 238 175 210 133 178 26 98 82 352 298 254 260 282 259 225 243 256 227 242 251 245 241 273 269 226 216 212 216 215 219 208 202 206 203 204 195 200 204 204 202 202 202 201 199 199 198 197 197 195 196 186 161 154 141 101 125 110 53 166 197 217 206 203 201 203 205 191 192 196 195 195 197 198 192 190 183 187 179 182 183 193 194 206 207 205 188 177 181 203 235 228 229
234 242 225 229 237 230 273 204 124 53 284 265 158 324 277 280 250 235 251 252 240 242 222 236 231 236 235 236 232 230 234 227 214 209 207 203 205 211 213 205 201 207 208 208 202 203 200 200 201 202 202 200 201 198 192 177 180 177 167 171 174 188 197 187 202 207 199 195 204 188 183 185 187 191 191 192 193 190 187 183 181 178 187 181 186 196 201 181 170 170 190 193 205 209 214 208 213
207 245 211 238 238 177 141 169 97 125 180 279 121 188 264 327 270 234 234 230 242 261 214 238 233 236 228 227 230 226 221 226 233 240 232 211 213 207 211 208 209 209 214 201 202 204 203 202 201 200 200 200 201 197 184 181 185 187 191 195 196 196 202 215 214 200 196 198 167 178 184 182 188 190 194 190 186 187 186 185 184 186 187 185 188 190 185 189 194 203 199 200 215 194 163 240 233
228 250 240 247 215 159 182 170 180 200 257 357 50 131 207 283 282 259 282 223 249 258 252 253 243 238 233 230 231 228 224 220 215 217 214 213 207 201 206 209 208 213 206 196 204 202 203 203 197 201 201 201 199 191 185 188 190 193 195 200 200 202 206 213 195 186 163 162 182 189 184 193 193 191 187 186 183 182 183 185 186 185 181 184 174 191 201 207 196 188 186 201 191 179 189 207 232
221 233 171 216 204 206 168 166 181 247 150 262 296 252 216 256 267 305 188 243 268 257 247 245 240 235 235 233 233 230 226 221 213 212 214 211 208 212 215 212 215 214 201 202 203 203 203 203 202 201 204 199 197 191 189 194 196 194 196 197 202 211 209 202 162 156 164 169 182 187 190 191 189 189 182 176 178 180 180 183 183 183 181 181 179 192 204 183 190 188 176 174 194 201 199 209 213
233 177 128 72 70 62 111 146 145 179 140 248 230 187 199 280 273 323 335 215 252 251 241 238 232 230 228 233 236 231 230 229 226 225 221 215 214 214 211 216 216 214 207 205 206 199 204 201 203 201 206 199 196 194 192 196 198 191 195 198 202 205 195 175 164 173 176 175 179 185 186 185 184 181 181 178 180 185 181 182 183 183 188 187 178 189 187 183 188 185 183 189 187 197 197 186 211
131 127 90 49 37 59 37 72 108 89 249 250 236 245 163 280 255 213 193 219 198 232 269 268 253 246 243 237 235 232 228 226 226 229 231 228 231 230 210 211 215 206 205 197 200 197 192 197 200 203 207 199 196 197 192 198 197 195 199 198 201 200 192 176 173 185 180 181 189 187 187 187 181 180 172 183 181 179 186 182 181 185 183 180 183 176 177 181 180 178 175 165 173 189 190 191 210
146 160 136 117 321 15 34 337 44 200 257 262 250 207 166 206 291 279 239 263 229 207 229 243 245 238 241 238 238 237 232 227 226 225 234 233 244 234 206 216 207 199 186 200 203 197 197 197 195 206 207 201 198 197 196 200 198 201 202 197 200 199 186 185 190 193 187 189 188 184 179 167 187 176 175 176 184 175 174 180 176 172 183 175 176 183 172 167 166 159 158 164 165 162 150 155 174
173 128 145 168 238 109 237 76 227 218 213 229 179 159 333 247 231 249 278 262 271 222 220 236 253 266 260 260 249 236 226 221 215 218 218 211 206 201 203 213 198 194 198 196 197 196 198 197 197 200 209 199 200 196 198 199 199 202 199 198 200 192 189 193 195 194 187 187 183 173 172 183 169 175 186 180 185 172 169 164 159 168 168 168 161 172 181 162 148 157 156 160 157 160 172 170 170
171 174 161 176 175 176 203 243 341 324 289 261 203 324 261 248 283 248 251 261 244 237 228 244 241 245 255 259 262 249 226 216 216 211 208 206 202 203 201 197 200 201 201 197 196 196 197 199 200 203 209 197 198 197 199 199 203 201 199 197 194 184 193 194 196 190 186 186 179 182 183 180 180 185 178 187 175 170 171 168 171 183 183 174 165 171 164 151 155 163 164 159 174 183 164 167 177
196 132 164 177 138 160 195 191 192 213 205 251 271 96 233 136 241 231 233 252 284 282 226 235 245 247 260 284 284 281 255 226 201 192 196 200 205 199 198 199 198 200 198 197 196 199 192 199 199 206 208 203 197 200 197 200 199 198 196 194 188 185 193 193 196 187 176 179 184 183 188 179 180 181 180 178 168 174 180 178 183 183 186 183 170 167 163 158 161 150 158 172 176 175 171 170 186
197 171 91 163 213 129 192 203 174 198 194 244 202 209 189 181 251 280 236 260 274 277 268 273 264 270 287 283 249 238 242 246 236 225 227 230 218 211 213 213 214 209 206 202 202 197 197 204 203 207 207 199 198 196 201 198 197 190 187 188 193 189 190 188 181 176 182 181 179 182 185 185 183 169 174 172 191 178 184 186 180 189 182 177 172 167 163 163 160 156 162 168 185 177 166 171 189
204 116 202 211 148 116 101 46 128 92 41 252 164 309 292 304 317 283 293 301 275 292 281 275 269 261 297 262 249 245 244 249 247 235 233 236 226 224 218 215 212 207 203 204 202 197 200 198 200 206 206 193 193 196 196 193 187 183 193 193 187 186 186 186 186 187 183 178 173 179 177 181 173 173 180 182 176 182 178 174 177 182 180 174 166 168 167 166 165 164 170 175 178 181 164 188 177
110 194 214 159 107 114 150 208 339 165 202 256 85 205 285 130 255 301 317 275 269 268 258 250 255 256 255 246 238 234 234 234 247 259 258 252 245 238 226 223 218 212 209 209 213 206 204 203 197 197 195 194 197 192 190 185 183 189 191 194 193 190 186 187 182 177 165 161 170 169 162 167 188 184 172 176 168 170 168 166 160 159 155 152 165 165 165 164 160 167 173 181 175 161 168 157 167
183 191 181 154 208 225 264 118 217 179 233 264 290 261 260 184 226 344 265 245 248 261 260 232 254 238 233 241 251 248 253 269 259 249 248 246 238 238 225 223 222 220 216 214 209 200 202 205 203 200 200 197 186 182 181 184 186 190 190 190 184 182 182 177 167 155 156 167 174 177 180 179 163 165 159 162 165 163 160 158 147 138 129 134 142 154 154 156 160 160 168 159 154 148 140 146 153
86 70 317 332 131 202 151 201 164 136 244 167 284 95 238 204 214 220 253 232 245 245 269 246 244 233 222 228 237 242 241 234 239 240 240 241 240 228 218 214 215 211 208 208 200 187 194 192 179 191 188 176 172 184 185 189 190 182 179 172 179 176 172 168 165 160 170 179 180 177 172 165 174 160 165 162 157 158 156 149 145 134 129 132 135 143 147 149 151 153 157 149 155 140 137 139 153
176 140 196 238 12 254 114 108 158 181 183 184 205 280 261 244 215 201 239 246 229 210 235 247 253 238 224 223 225 236 241 244 241 235 231 226 228 229 227 227 225 210 198 187 188 193 194 180 185 183 183 184 190 196 188 194 174 176 161 172 170 163 166 160 158 170 173 181 179 175 170 161 142 167 157 156 155 158 154 147 142 141 142 145 143 145 149 143 141 146 151 139 134 128 137 155 155
182 179 193 189 141 137 175 234 47 127 165 226 153 253 247 259 195 200 216 232 253 257 213 236 254 253 232 230 237 228 244 248 244 237 222 220 224 229 235 229 200 171 182 187 195 184 188 190 192 188 190 194 193 193 190 179 173 165 168 167 165 163 160 162 168 174 177 176 172 168 157 149 166 167 162 154 154 152 147 146 141 143 146 149 149 149 157 145 144 144 144 145 145 143 140 145 127